Regional Weather Roundup
Issued by NWS

Home | Current Version | Previous Version | Graphics & Text | Print | Product List | Glossary On
Versions: 1 2 3 4 5 6 7 8 9 10 11 12 13 14 15 16 17 18 19 20 21 22 23 24 25 26 27 28 29 30 31 32 33 34 35 36 37 38 39 40 41 42 43 44 45 46 47 48 49 50
000
ASUS43 KFSD 280710
RWRSD

WEATHER ROUNDUP FOR SOUTH DAKOTA
NATIONAL WEATHER SERVICE SIOUX FALLS SD
100 AM CST SUN DEC 28 2014

NOTE: "FAIR" INDICATES FEW OR NO CLOUDS BELOW 12,000 FEET WITH NO
SIGNIFICANT WEATHER AND/OR OBSTRUCTIONS TO VISIBILITY.


SDZ001>005-009-010-012>017-280800-
NORTHWEST AND NORTH CENTRAL SOUTH DAKOTA

CITY           SKY/WX    TMP DP  RH WIND       PRES   REMARKS
BUFFALO          N/A     23  16  74 W9        29.87F WCI  13
FAITH            N/A     23  14  68 SW8       29.98F WCI  14
MOBRIDGE       CLOUDY    15  10  80 CALM      30.00S
$$

SDZ012>016-024>037-041>051-057-063-072>074-280800-
SOUTHWEST AND SOUTH CENTRAL SOUTH DAKOTA

CITY           SKY/WX    TMP DP  RH WIND       PRES   REMARKS
RAPID CTY ARPT PTCLDY    15   7  70 W5        29.98F WCI   8
PIERRE         CLEAR     15  11  83 W10       30.04F WCI   2
CUSTER         CLEAR      8   1  73 W6        29.89F WCI  -2
ELLSWORTH AFB  PTCLDY    14   7  72 W6        29.97F WCI   5
PHILIP         PTCLDY    13   8  81 W9        30.04F WCI   1
PINE RIDGE     CLEAR     14   5  67 CALM      30.02F
SPEARFISH      FAIR      18   7  62 CALM      29.94F
WINNER         FAIR      18   8  65 SW8       30.05F WCI   8
$$

SDZ004>011-016>023-039-040-280800-
NORTHEAST SOUTH DAKOTA

CITY           SKY/WX    TMP DP  RH WIND       PRES   REMARKS
ABERDEEN       CLOUDY    12   8  84 CALM      30.06F
WATERTOWN      CLEAR      5   4  95 SW5       30.02F WCI  -4
SISSETON         N/A     18  15  88 NW9       30.03S WCI   7
$$

SDZ017-020-022-023-036>040-048>070-280800-
SOUTHEAST SOUTH DAKOTA

CITY           SKY/WX    TMP DP  RH WIND       PRES   REMARKS
SIOUX FALLS    PTCLDY     1   1 100 CALM      30.08F
HURON          CLEAR      6   3  87 CALM      30.07F
CHAMBERLAIN    CLOUDY    15  11  82 W8        30.07F WCI   5
MITCHELL       CLEAR      5   2  87 S7        30.08F WCI  -7
YANKTON          N/A      9   9 100 CALM      30.12F VSB 1/2
$$

ABBREVIATIONS USED IN REMARKS
   TC - TEMPERATURE IN CELSIUS
  WCI - WIND CHILL INDEX
   HX - HEAT INDEX
  VSB - VISIBILITY




USA.gov is the U.S. government's official web portal to all federal, state and local government web resources and services.